Southwest Florida International Airport
KRSW : now visible

Airfield :











YOU CAN JOIN US ON...

 
LOGIN :

Register | Disclaimer

   EN    FR    IT 

 









Legend :    VFR   Marginal VFR   IFR   Intensive IFR   Very Intensive IFR
Visi :
Ceiling :
>= 8 km
>= 3000ft
5 to 8 km
1000 to 3000 ft
1500m to 5 km
500 to 1000 ft
800 to 1500m
200 to 500 ft
< 800m
< 200 ft
Symbols :   Thunderstorms  Fog  Heavy snow  Heavy precipitations  Wind > 20 kt







- Airport Elevation : 30 ft
- IATA code : RSW


KRSW - Southwest Florida International

CURRENT METAR :
  • 241753Z 08015G22KT 10SM CLR 32/17 A3007 RMK AO2 SLP180 60000 T03170172 10317 20217 58010

EXPIRED METARs :
  • 241653Z 07011G19KT 10SM CLR 31/17 A3008 RMK AO2 SLP185 T03060167
  • 241553Z 07011KT 10SM CLR 29/18 A3010 RMK AO2 RAE28 SLP189 P0000 T02940178

TAF KRSW
Valid from the 24 at 18:00 until the 25 at 18:00 UTC


241721Z 2418/2518 07010G15KT P6SM FEW030
FM250400 VRB05KT P6SM FEW250
FM251400 08009KT P6SM FEW200
KZMA FIR / North America



MET'MAP, your aeronautical weather chart ! - Copyright ORBIFLY December 2007 - Disclaimer

ORBIFLY MET'MAP TEAM :

Programming & Development : Alexandra Zaïnal
Concept & Development : Baudouin d'Aumeries
Co-Development & Prog : Marc-Olivier Méhu
Technical & hardware support : Manuel Goepfert

Contact : metmap@orbifly.com




SOURCES & CREDITS :

   NOAA       Earth
Advisory